THOR ABLESTAR DEB, 4014

Orbit data source: Space-Track

THOR ABLESTAR DEB, 4014 is space debris in LEO originally from a launch on Thu, 29 Jun 1961 UTC launched from the Air Force Eastern Test Range (AFETR). Debris objects in space refer to the collection of defunct objects orbiting the Earth. Examples of debris include non-operational satellites, rocket bodies, and fragments generated from explosions, collisions, or faulty payload assembly.

Loading next visibility...
Identifier
4014, 1961-015JM
Orbit
LEO
Country
Flag of USUS
Related business
Manufacturer
Unknown
Mission
Spacecraft
Bus & Motor
Unknown
Mass
Unknown
Launch date (UTC)
1961-06-29 (65 years ago)
Launch vehicle
Unknown
Launch site
Air Force Eastern Test Range (AFETR)
Object type
Payload
Rocket body
Debris
Shape & HBR
Unknown shape, 0.1 m
Radar Cross Section
Medium (>0.1 m² and <1 m²)

Expand to show TLE details & history
Last TLE update: 2 days ago

TLE from 2 days ago
0 THOR ABLESTAR DEB
1 04014U 61015JM  26165.44596162 -.00000169  00000-0 -33985-3 0  9998
2 04014  67.6231 230.8258 0817557 347.3641  21.2951 12.30204922914037
Epoch: 2026-06-14T10:42Z
TLE epoch observation values (Epoch: 2026-06-14T10:42:11.083Z)
Latitude
11.43989°
Longitude
172.2866°
Altitude
953.669 km
Speed
7.648 km/s
True Right ascension
15h 42m 19s
True Declination
11° 22' 30"
Sunlit
Object was in full shadow at epoch
Visualization orbit readout
Latitude
Unknown
Longitude
Unknown
Altitude
Unknown
Speed
Unknown
Apparent Right ascension
Unknown
Apparent Declination
Unknown
Sunlit
N/A
Visualization observer readout
Local Sidereal Time
21:13:25
Azimuth
Unknown
Elevation
Unknown
Doppler factor
Unknown
Orbital elements
Apogee altitude
2,194.73 km
Perigee altitude
898.909 km
Semi-major axis
7,924.957 km
Eccentricity
0.08176
Inclination
67.6231°
RAAN
230.8258°
Arg. of periapsis
347.3641°
True anomaly
25.05111°
Mean anomaly
21.2951°
Eccentric anomaly
23.13558°
Mean motion
3.07644 °/min
Orbital period
117.02 mins
BSTAR
-0.00033985

Documentation

Showing up to 5 results
|